Stations météo

réclame
Mon MeteoGroup
Isle Of Portland, Grande-Bretagne (3857): Température de l'air & dewpoint: 14.08.2019 17:00:00 - 20.08.2019 17:00:00 (BST)Isle Of Portland, Grande-Bretagne (3857): Vitesse du vent & gusts: 14.08.2019 17:00:00 - 20.08.2019 17:00:00 (BST)Isle Of Portland, Grande-Bretagne (3857): Direction du vent: 14.08.2019 17:00:00 - 20.08.2019 17:00:00 (BST)Isle Of Portland, Grande-Bretagne (3857): reduced air pressure: 14.08.2019 17:00:00 - 20.08.2019 17:00:00 (BST)Isle Of Portland, Grande-Bretagne (3857): visibility: 14.08.2019 17:00:00 - 20.08.2019 17:00:00 (BST)Isle Of Portland, Grande-Bretagne (3857): Quantités de précipitations: 14.08.2019 17:00:00 - 20.08.2019 17:00:00 (BST)
Date & Time tt [°C] td [°C] ff [km/h] ff [knt] fx [km/h] fx [knt] dd ppp [hPa] vv [km] rr [mm]
20.08.2019 17:00:00 17,9 13,3 28 15 - - WSW 1025,7 19 0,0
20.08.2019 16:00:00 18,1 12,0 28 15 - - WSW 1025,7 27 0,0
20.08.2019 15:00:00 18,6 12,3 24 13 - - WSW 1025,5 23 0,0
20.08.2019 14:00:00 18,6 11,7 24 13 - - WSW 1025,2 35 0,0
20.08.2019 13:00:00 18,1 11,4 21 11 - - W 1025,1 19 0,0
20.08.2019 12:00:00 16,9 11,0 21 11 - - W 1025,1 30 0,0
20.08.2019 11:00:00 16,6 11,2 21 11 - - W 1024,8 15 0,0
20.08.2019 10:00:00 16,1 10,5 16 9 - - WNW 1024,3 15 0,0
20.08.2019 09:00:00 15,5 10,0 18 10 - - W 1023,6 22 0,0
20.08.2019 08:00:00 15,1 10,6 18 10 - - NW 1022,9 18 0,0
20.08.2019 07:00:00 14,8 11,3 24 13 - - WNW 1022,0 17 0,0
20.08.2019 06:00:00 14,9 11,8 28 15 - - WNW 1021,4 18 0,0
20.08.2019 05:00:00 14,7 12,2 22 12 - - W 1021,0 16 0,0
20.08.2019 04:00:00 14,7 11,8 28 15 - - W 1020,9 19 0,0
20.08.2019 03:00:00 14,9 11,5 29 16 - - W 1020,5 20 0,0
20.08.2019 02:00:00 15,0 11,4 31 17 - - W 1020,4 22 0,0
20.08.2019 01:00:00 15,1 11,6 31 17 - - W 1020,5 19 0,0
20.08.2019 00:00:00 15,5 11,2 34 18 - - W 1020,5 23 0,0
19.08.2019 23:00:00 15,8 11,2 31 17 46 25 W 1020,1 23 0,0
19.08.2019 22:00:00 16,4 12,9 34 18 - - W 1019,7 23 0,0
19.08.2019 21:00:00 16,1 13,8 31 17 50 27 W 1019,1 9 0,0
19.08.2019 20:00:00 16,4 13,1 35 19 48 26 W 1018,4 13 0,0
19.08.2019 19:00:00 17,0 13,6 37 20 50 27 WSW 1018,2 12 0,0
19.08.2019 18:00:00 17,3 13,3 39 21 50 27 WSW 1017,9 14 0,0
19.08.2019 17:00:00 16,8 12,9 41 22 55 30 WSW 1017,8 16 0,0
19.08.2019 16:00:00 17,8 12,9 41 22 59 32 WSW 1017,4 14 0,0
19.08.2019 15:00:00 17,8 12,9 46 25 57 31 WSW 1017,2 20 0,0
19.08.2019 14:00:00 17,2 13,2 41 22 55 30 WSW 1017,0 13 0,0
19.08.2019 13:00:00 18,0 13,6 39 21 52 28 WSW 1016,4 9 0,0
19.08.2019 12:00:00 17,8 12,6 34 18 50 27 WSW 1016,1 12 0,0
19.08.2019 11:00:00 17,1 11,6 37 20 50 27 W 1015,5 21 0,0
19.08.2019 10:00:00 16,7 12,5 39 21 55 30 W 1014,9 12 0,0
19.08.2019 09:00:00 16,2 12,5 39 21 55 30 W 1014,3 13 0,0
19.08.2019 08:00:00 15,9 12,4 42 23 55 30 W 1013,7 17 0,0
19.08.2019 07:00:00 15,7 12,5 41 22 57 31 W 1013,3 13 0,0
19.08.2019 06:00:00 15,4 12,5 37 20 52 28 W 1012,9 11 0,0
19.08.2019 05:00:00 15,5 12,5 35 19 54 29 W 1012,6 11 0,0
19.08.2019 04:00:00 15,5 12,4 42 23 52 28 W 1012,1 13 0,0
19.08.2019 03:00:00 15,5 12,6 41 22 55 30 W 1012,0 15 0,0
19.08.2019 02:00:00 15,6 12,6 42 23 57 31 W 1012,1 12 0,0
19.08.2019 01:00:00 15,9 13,0 41 22 57 31 W 1011,8 12 0,0
19.08.2019 00:00:00 15,9 12,9 39 21 57 31 W 1011,5 13 0,0
18.08.2019 23:00:00 16,0 13,3 46 25 59 32 W 1011,1 11 0,0
18.08.2019 22:00:00 16,0 13,3 44 24 59 32 W 1010,6 9 0,0
18.08.2019 21:00:00 15,6 13,8 37 20 59 32 WSW 1010,2 11 0,0
18.08.2019 20:00:00 16,5 12,0 44 24 61 33 W 1009,4 14 0,0
18.08.2019 19:00:00 16,5 13,0 46 25 63 34 WSW 1009,0 10 0,0
18.08.2019 18:00:00 17,2 13,8 48 26 63 34 WSW 1008,8 9 0,0
18.08.2019 17:00:00 17,6 12,8 50 27 67 36 WSW 1008,7 12 0,0
18.08.2019 16:00:00 17,9 12,8 48 26 65 35 WSW 1008,5 13 0,0
18.08.2019 15:00:00 18,2 13,1 46 25 61 33 WSW 1008,1 17 0,0
18.08.2019 14:00:00 17,9 13,1 41 22 55 30 WSW 1007,6 16 0,0
18.08.2019 13:00:00 17,6 13,2 41 22 54 29 WSW 1007,1 17 0,0
18.08.2019 12:00:00 17,2 12,0 34 18 46 25 W 1006,7 19 0,0
18.08.2019 11:00:00 16,7 11,7 35 19 48 26 W 1006,1 20 0,0
18.08.2019 10:00:00 16,4 13,6 34 18 52 28 W 1005,4 14 0,0
18.08.2019 09:00:00 15,5 13,3 35 19 48 26 W 1004,7 19 0,0
18.08.2019 08:00:00 14,5 13,7 28 15 55 30 W 1004,3 10 1,8
18.08.2019 07:00:00 15,1 13,4 22 12 - - W 1003,6 7 0,2
18.08.2019 06:00:00 15,5 12,5 18 10 - - W 1003,3 30 0,0
18.08.2019 05:00:00 15,5 13,0 18 10 - - W 1003,5 26 0,0
18.08.2019 04:00:00 15,4 12,9 22 12 - - WSW 1003,9 30 0,0
18.08.2019 03:00:00 15,2 13,3 21 11 - - WSW 1004,4 20 0,0
18.08.2019 02:00:00 15,1 12,8 26 14 - - SW 1004,8 26 0,0
18.08.2019 01:00:00 15,3 14,1 29 16 - - WSW 1005,2 10 0,8
18.08.2019 00:00:00 16,2 15,1 26 14 - - WSW 1005,6 9 0,0
17.08.2019 23:00:00 16,2 14,7 31 17 - - WSW 1005,6 13 0,0
17.08.2019 22:00:00 16,2 14,7 34 18 52 28 WSW 1006,3 10 0,0
17.08.2019 21:00:00 16,2 14,4 37 20 48 26 WSW 1006,7 10 0,0
17.08.2019 20:00:00 16,4 14,1 37 20 50 27 WSW 1006,5 11 0,0
17.08.2019 19:00:00 16,5 14,5 37 20 54 29 WSW 1006,6 10 0,0
17.08.2019 18:00:00 17,0 14,5 39 21 50 27 SW 1006,5 12 0,0
17.08.2019 17:00:00 18,2 15,0 35 19 48 26 WSW 1006,5 15 0,0
17.08.2019 16:00:00 17,6 15,0 34 18 46 25 WSW 1006,8 11 0,0
17.08.2019 15:00:00 18,7 15,7 34 18 - - WSW 1006,9 13 0,0
17.08.2019 14:00:00 18,2 15,1 29 16 - - WSW 1006,8 11 0,0
17.08.2019 13:00:00 19,1 16,3 29 16 - - WSW 1006,8 10 0,0
17.08.2019 12:00:00 17,1 15,0 34 18 46 25 WSW 1006,7 8 0,0
17.08.2019 11:00:00 17,0 15,1 37 20 48 26 WSW 1006,4 10 0,0
17.08.2019 10:00:00 16,8 14,9 41 22 50 27 WSW 1006,5 11 0,0
17.08.2019 09:00:00 16,4 15,1 35 19 52 28 W 1006,0 9 0,0
17.08.2019 08:00:00 16,2 14,8 41 22 48 26 WSW 1005,7 9 0,0
17.08.2019 07:00:00 15,8 14,2 31 17 50 27 W 1005,3 10 0,0
17.08.2019 06:00:00 15,6 14,6 29 16 46 25 WSW 1005,1 9 0,0
17.08.2019 05:00:00 15,8 14,6 28 15 - - W 1005,0 11 0,0
17.08.2019 04:00:00 15,7 15,4 31 17 46 25 W 1004,9 10 0,0
17.08.2019 03:00:00 16,2 16,2 35 19 48 26 WSW 1004,7 7 0,0
17.08.2019 02:00:00 16,8 16,8 39 21 54 29 WSW 1004,5 5 0,0
17.08.2019 01:00:00 17,0 16,9 41 22 54 29 WSW 1004,6 1,4 0,0
17.08.2019 00:00:00 17,0 16,9 41 22 54 29 WSW 1004,9 6 0,8
16.08.2019 23:00:00 17,0 17,0 42 23 57 31 SW 1005,1 3,0 0,4
16.08.2019 22:00:00 16,8 16,8 42 23 65 35 SW 1005,4 1,3 0,2
16.08.2019 21:00:00 16,7 16,7 46 25 63 34 SW 1005,6 2,6 0,2
16.08.2019 20:00:00 16,5 16,5 42 23 65 35 SSW 1005,9 3,2 0,4
16.08.2019 19:00:00 16,3 16,3 48 26 74 40 SSW 1006,6 2,4 1,6
16.08.2019 18:00:00 16,2 16,2 50 27 67 36 SSW 1007,3 2,2 3,4
16.08.2019 17:00:00 16,2 15,3 48 26 68 37 SSW 1008,1 2,2 0,8
16.08.2019 16:00:00 15,9 15,3 46 25 65 35 SSW 1009,1 6 1,4
16.08.2019 15:00:00 16,1 15,4 39 21 57 31 SSW 1010,0 5 1,6
16.08.2019 14:00:00 16,3 15,4 37 20 54 29 SSW 1010,9 6 0,6
16.08.2019 13:00:00 15,9 15,1 41 22 55 30 SSW 1011,7 4,1 0,4
16.08.2019 12:00:00 16,1 14,8 39 21 50 27 SSW 1012,2 8 0,6
16.08.2019 11:00:00 15,9 15,0 35 19 46 25 SSW 1013,0 6 1,2
16.08.2019 10:00:00 16,7 14,0 31 17 48 26 SSW 1013,8 17 0,0
16.08.2019 09:00:00 16,6 14,4 29 16 - - SSW 1014,1 18 0,0
16.08.2019 08:00:00 16,3 15,2 28 15 - - SSW 1014,8 13 0,0
16.08.2019 07:00:00 16,3 15,2 28 15 - - SSW 1015,0 13 0,0
16.08.2019 06:00:00 16,3 15,2 26 14 - - SSW 1015,5 16 0,0
16.08.2019 05:00:00 16,5 15,2 22 12 - - SSW 1016,1 19 0,0
16.08.2019 04:00:00 16,5 14,5 22 12 - - SW 1016,5 18 0,0
16.08.2019 03:00:00 16,3 14,8 22 12 - - WSW 1017,1 15 0,0
16.08.2019 02:00:00 16,3 15,3 24 13 - - WSW 1017,6 12 0,0
16.08.2019 01:00:00 16,3 14,8 22 12 - - WSW 1017,7 14 0,0
16.08.2019 00:00:00 16,6 15,0 26 14 - - W 1018,3 16 0,0
15.08.2019 23:00:00 16,8 15,3 24 13 - - W 1018,4 12 0,0
15.08.2019 22:00:00 16,9 15,6 28 15 - - W 1018,4 11 0,0
15.08.2019 21:00:00 17,0 15,8 28 15 - - W 1018,0 11 0,0
15.08.2019 20:00:00 17,5 15,1 22 12 - - W 1017,6 14 0,0
15.08.2019 19:00:00 18,4 15,6 24 13 - - W 1017,6 14 0,0
15.08.2019 18:00:00 18,2 16,0 26 14 - - W 1017,6 11 0,0
15.08.2019 17:00:00 19,1 14,7 24 13 - - W 1017,3 22 0,0
15.08.2019 16:00:00 19,6 14,0 28 15 - - W 1016,5 30 0,0
15.08.2019 15:00:00 19,3 13,0 31 17 - - W 1016,4 27 0,0
15.08.2019 14:00:00 19,6 14,1 28 15 - - W 1016,2 25 0,0
15.08.2019 13:00:00 18,5 12,7 34 18 - - W 1015,7 30 0,0
15.08.2019 12:00:00 18,0 13,0 34 18 - - W 1015,1 19 0,0
15.08.2019 11:00:00 17,5 13,9 31 17 50 27 WNW 1014,8 17 0,0
15.08.2019 10:00:00 17,3 13,9 37 20 52 28 WNW 1014,1 14 0,0
15.08.2019 09:00:00 17,2 14,8 31 17 59 32 W 1013,8 17 0,0
15.08.2019 08:00:00 17,0 14,1 44 24 57 31 WNW 1012,9 12 0,0
15.08.2019 07:00:00 16,8 14,5 41 22 55 30 W 1012,2 13 0,0
15.08.2019 06:00:00 16,6 15,1 42 23 54 29 W 1011,8 11 0,0
15.08.2019 05:00:00 16,3 15,0 42 23 54 29 W 1011,4 12 0,0
15.08.2019 04:00:00 16,5 15,3 42 23 52 28 W 1011,1 10 0,0
15.08.2019 03:00:00 16,7 15,3 42 23 52 28 W 1011,1 11 0,0
15.08.2019 02:00:00 16,8 15,6 37 20 48 26 W 1011,1 10 0,0
15.08.2019 01:00:00 16,6 15,6 35 19 50 27 W 1011,0 10 0,0
15.08.2019 00:00:00 16,7 15,3 37 20 50 27 W 1010,7 14 0,0
14.08.2019 23:00:00 17,2 15,7 42 23 54 29 W 1010,2 14 0,0
14.08.2019 22:00:00 16,9 16,6 37 20 50 27 W 1009,7 11 0,0
14.08.2019 21:00:00 17,0 16,8 35 19 54 29 W 1009,6 7 0,0
14.08.2019 20:00:00 17,0 16,8 39 21 52 28 WSW 1009,0 7 0,0
14.08.2019 19:00:00 17,2 16,8 39 21 48 26 WSW 1008,9 9 0,0
14.08.2019 18:00:00 17,8 17,8 29 16 - - WSW 1009,2 7 0,0
14.08.2019 17:00:00 17,5 17,5 31 17 46 25 WSW 1009,4 6 0,0

tt = Température de l'air
td = dewpoint
ff = Vitesse du vent
fx = gusts
dd = Direction du vent
ppp = reduced air pressure
vv = visibility
rr = Quantités de précipitations

stations d'obs. à proximité